[[{"header":{"parameterUnit":"m.s-1","parameterCategory":1,"la1":30.2991,"la2":30.254,"lo1":-89.0895,"lo2":-89.0444,"dy":0.0017,"dx":0.0017,"nx":28,"ny":28,"refTime":"2025-09-15T21:00:00:Z","depth":0,"parameterNumber":2,"parameterNumberName":"U-component_of_WINDS"},"data":[0,0,0,0,0,0,0,0,0,0,0,0,0,0,0,0,0,0,0,0,0,0,0,0,0,0,0,0,0,0,0,0,0,0,0,0,0,0,0,0,0,0,0,0,0,0,0,0,0,0,0,0,0,0,0,0,0,0,2.1023,2.1023,0,2.1058,2.1058,2.1058,2.1009,2.1007,2.1005,2.1004,2.1039,2.1042,2.1044,0,0,0,0,0,0,0,0,0,0,0,0,0,2.0912,2.0914,2.1023,2.1023,2.1024,2.1057,2.1058,2.1058,2.1009,2.1007,2.1005,2.1003,2.1038,2.1041,2.1045,0,0,0,0,0,0,0,0,0,0,0,0,0,2.0955,2.0915,2.1023,2.1003,2.1002,2.1057,2.1058,2.1059,2.101,2.1007,2.1004,2.1002,2.1037,2.1041,2.1045,2.1121,0,0,2.1057,2.1058,0,0,0,0,0,0,0,0,2.0953,2.0959,2.1006,2.1005,2.1003,2.1026,2.1032,2.108,2.101,2.1007,2.1004,2.1001,2.1037,2.1041,2.1053,2.1123,2.1124,2.1057,2.1059,2.1061,2.1062,0,0,0,0,0,0,0,2.095,2.0957,2.1037,2.1007,2.1005,2.0992,2.0995,2.1041,2.1036,2.1007,2.1003,2.1008,2.1036,2.1049,2.1053,2.1125,2.1057,2.106,2.1063,2.1064,2.1254,2.1256,0,0,0,0,0,0,2.0949,2.0955,2.1036,2.1038,2.0971,2.0996,2.1,2.1022,2.1036,2.1035,2.101,2.1006,2.1044,2.1049,2.1055,2.1141,2.1061,2.1065,2.1067,2.1251,2.1254,2.1257,0,0,0,0,0,0,2.0947,2.0957,2.1034,2.0995,2.1004,2.1001,2.1026,2.1024,2.1037,2.1038,2.1037,2.1025,2.1042,2.1049,2.1104,2.1141,2.1066,2.107,2.1248,2.1252,2.1256,2.1316,0,0,0,0,0,0,2.0944,2.0956,2.0986,2.0997,2.1007,2.1084,2.1028,2.1026,2.1044,2.1038,2.1052,2.1051,2.1041,2.1098,2.1108,2.1145,2.1073,2.1244,2.125,2.1254,2.1311,2.1322,2.1331,0,0,0,0,0,2.094,2.1003,2.0988,2.0998,2.1044,2.1086,2.1092,2.1078,2.1047,2.1076,2.1076,2.1051,2.1136,2.1104,2.1114,2.1154,2.1242,2.1248,2.1254,2.1306,2.132,2.1331,0,0,0,0,0,0,2.0999,2.1004,2.0988,2.1056,2.1071,2.1078,2.1114,2.1094,2.1118,2.1112,2.1094,2.1097,2.1155,2.116,2.1124,2.1226,2.1184,2.1192,2.122,2.1233,2.1243,2.1239,2.1076,0,0,0,0,0,2.1019,2.1054,2.1057,2.1116,2.1125,2.1118,2.1136,2.1124,2.1139,2.1145,2.1149,2.1164,2.1194,2.1214,2.1242,2.1312,2.1312,2.1344,2.1354,2.1362,2.1369,2.1402,2.1415,2.1277,2.1277,2.1277,0,0,2.1063,2.107,2.1093,2.1128,2.1138,2.1172,2.1124,2.1164,2.1188,2.1151,2.1202,2.1205,2.1221,2.1282,2.1309,2.1288,2.1407,2.137,2.1377,2.1379,2.1409,2.1422,2.1434,2.1281,2.1281,2.128,0,0,2.1158,2.1169,2.1217,2.1227,2.1243,2.1237,2.1249,2.1259,2.1259,2.1309,2.1281,2.131,2.1363,2.1373,2.1386,2.1481,2.1458,2.1491,2.1544,2.1576,2.1587,2.1596,2.1627,2.1638,2.1498,2.1499,2.1499,0,2.121,2.1261,2.1245,2.1285,2.1299,2.1266,2.1314,2.1325,2.1349,2.1359,2.1335,2.1398,2.1406,2.1467,2.149,2.1503,2.1513,2.1489,2.1587,2.1596,2.1605,2.1633,2.1645,2.1502,2.1502,2.1501,2.1501,0,2.1321,2.1357,2.1394,2.1415,2.1435,2.1479,2.1468,2.1489,2.1475,2.1471,2.1521,2.153,2.1557,2.1571,2.1559,2.1629,2.1615,2.159,2.1546,2.1622,2.1648,2.1659,2.1508,2.1506,2.1505,2.1504,0,0,2.1455,2.1465,2.1478,2.1485,2.1498,2.1525,2.1566,2.1591,2.1608,2.1626,2.1657,2.1701,2.1676,2.169,2.1678,2.1707,2.1777,2.1677,2.1677,2.1692,2.1851,2.1867,2.1881,2.1762,2.1764,2.1766,2.1848,0,2.1547,2.1617,2.1602,2.167,2.17,2.1668,2.1703,2.1714,2.1711,2.1736,2.1733,2.1763,2.173,2.1737,2.1765,2.1763,2.1808,2.1757,2.1789,2.1791,2.1783,2.1895,2.1914,2.1991,2.1859,2.1861,2.1862,0,2.1664,2.1682,2.1753,2.1756,2.1768,2.18,2.182,2.1845,2.1855,2.1851,2.1865,2.1847,2.1885,2.1843,2.1895,2.186,2.1873,2.1873,2.1876,2.1876,2.1829,2.1895,2.2016,2.2026,2.1879,2.1877,2.1876,0,2.1749,2.1792,2.1838,2.1846,2.1853,2.1875,2.1879,2.1887,2.1902,2.1919,2.1928,2.1951,2.1962,2.1979,2.1966,2.1938,2.2018,2.1976,2.2014,2.2014,2.203,2.2029,2.2151,2.2044,2.2044,2.2044,2.2043,0,2.1851,2.1894,2.1876,2.1904,2.1951,2.1933,2.1979,2.1979,2.1986,2.2013,2.1988,2.2013,2.1996,2.202,2.201,2.2052,2.2058,2.2054,2.2051,2.2055,2.2055,2.2061,2.2054,2.2047,2.2046,2.2045,2.2045,0,2.1953,2.1943,2.1991,2.1992,2.1993,2.2027,2.2028,2.2053,2.2048,2.2081,2.2088,2.208,2.2106,2.2096,2.2124,2.2118,2.217,2.2161,2.2165,2.2162,2.2198,2.2194,2.2326,2.2341,2.2228,2.2229,2.223,0,2.2018,2.2049,2.2053,2.2068,2.2073,2.2099,2.2112,2.2096,2.2111,2.2123,2.2147,2.217,2.2188,2.2231,2.2227,2.2248,2.2237,2.2282,2.224,2.2242,2.2233,2.223,2.2231,2.229,2.2291,2.2292,2.2293,0,2.2131,2.2123,2.2144,2.2162,2.2178,2.2192,2.2204,2.2218,2.2201,2.222,2.2245,2.2258,2.2286,2.2308,2.2326,2.2329,2.2307,2.2306,2.2315,2.2318,2.2318,2.2315,2.2184,2.2303,2.2302,2.2301,2.2301,2.23,2.2214,2.2239,2.2244,2.2266,2.2273,2.2283,2.2305,2.2302,2.2322,2.2342,2.2331,2.236,2.2367,2.2388,2.2393,2.2415,2.2397,2.2411,2.2414,2.2417,2.242,2.2317,2.2419,2.2418,2.2418,2.2418,2.2418,0,2.2323,2.2323,2.2344,2.2359,2.2377,2.2354,2.2365,2.238,2.2406,2.2413,2.243,2.2458,2.2479,2.2476,2.2495,2.2512,2.2502,2.2517,2.2514,2.2515,2.2437,2.2425,2.2525,2.2525,2.2525,2.2525,2.2525,2.2525,2.2381,2.242,2.2413,2.2454,2.2455,2.2482,2.2489,2.2498,2.2503,2.2534,2.2551,2.2548,2.2551,2.2569,2.2587,2.2585,2.2592,2.261,2.2605,2.2531,2.2521,2.251,2.2499,2.2613,2.2613,2.268,2.2681,2.2681]},{"header":{"parameterUnit":"m.s-1","parameterCategory":1,"la1":30.2991,"la2":30.254,"lo1":-89.0895,"lo2":-89.0444,"dy":0.0017,"dx":0.0017,"nx":28,"ny":28,"refTime":"2025-09-15T21:00:00:Z","depth":0,"parameterNumber":3,"parameterNumberName":"V-component_of_WINDS"},"data":[0,0,0,0,0,0,0,0,0,0,0,0,0,0,0,0,0,0,0,0,0,0,0,0,0,0,0,0,0,0,0,0,0,0,0,0,0,0,0,0,0,0,0,0,0,0,0,0,0,0,0,0,0,0,0,0,0,0,1.9575,1.9575,0,1.9614,1.9614,1.9615,1.9607,1.9607,1.9606,1.9605,1.9642,1.9643,1.9645,0,0,0,0,0,0,0,0,0,0,0,0,0,1.9488,1.949,1.9575,1.9575,1.9576,1.9614,1.9614,1.9615,1.9607,1.9607,1.9606,1.9605,1.9641,1.9643,1.9645,0,0,0,0,0,0,0,0,0,0,0,0,0,1.9526,1.949,1.9574,1.9577,1.9577,1.9614,1.9614,1.9615,1.9608,1.9607,1.9606,1.9605,1.964,1.9643,1.9645,1.9681,0,0,1.9653,1.9654,0,0,0,0,0,0,0,0,1.9524,1.9529,1.9576,1.9576,1.9577,1.9605,1.9597,1.9637,1.9608,1.9596,1.9605,1.9604,1.963,1.9633,1.9643,1.9683,1.9684,1.9653,1.9654,1.9655,1.9656,0,0,0,0,0,0,0,1.9521,1.9528,1.959,1.9576,1.9577,1.9574,1.9578,1.9605,1.9618,1.9597,1.9597,1.9601,1.963,1.964,1.9643,1.9685,1.9653,1.9655,1.9656,1.9657,1.9753,1.9754,0,0,0,0,0,0,1.9519,1.9525,1.9589,1.9591,1.9548,1.9576,1.9581,1.9597,1.9618,1.962,1.9602,1.9601,1.9637,1.9641,1.9645,1.9686,1.9655,1.9658,1.9659,1.9752,1.9753,1.9755,0,0,0,0,0,0,1.9517,1.9524,1.9587,1.9558,1.9566,1.9579,1.9597,1.9598,1.9609,1.9622,1.9624,1.9611,1.9636,1.9641,1.9672,1.9687,1.9659,1.9661,1.9751,1.9753,1.9754,1.9771,0,0,0,0,0,0,1.9514,1.9524,1.9539,1.9559,1.9568,1.9615,1.9598,1.96,1.9613,1.9612,1.963,1.9632,1.9636,1.9668,1.9674,1.969,1.9663,1.9749,1.9752,1.9754,1.9769,1.9773,1.9776,0,0,0,0,0,1.9511,1.9542,1.954,1.9547,1.9587,1.9616,1.9621,1.9625,1.9615,1.9629,1.9637,1.9632,1.9685,1.9671,1.9678,1.9695,1.9748,1.9751,1.9753,1.9767,1.9772,1.9776,0,0,0,0,0,0,1.9522,1.9544,1.9542,1.958,1.9596,1.9615,1.9633,1.963,1.9649,1.9647,1.965,1.9654,1.9685,1.9693,1.9677,1.9729,1.9715,1.9719,1.9723,1.9728,1.9731,1.9728,1.9665,0,0,0,0,0,1.9529,1.9553,1.957,1.9601,1.961,1.962,1.9633,1.9635,1.9651,1.9658,1.9668,1.9683,1.9703,1.9716,1.9735,1.977,1.9773,1.9785,1.9789,1.9791,1.9794,1.9811,1.9816,1.9763,1.9763,1.9763,0,0,1.9543,1.9558,1.9573,1.9604,1.9617,1.9639,1.9626,1.965,1.9666,1.9661,1.969,1.9698,1.9715,1.9747,1.9762,1.9755,1.981,1.9795,1.9797,1.9798,1.9814,1.9819,1.9824,1.9764,1.9764,1.9764,0,0,1.958,1.9595,1.9622,1.9635,1.9655,1.9661,1.9668,1.9686,1.9692,1.9721,1.9717,1.9736,1.977,1.9782,1.9792,1.9832,1.9827,1.9838,1.9857,1.9873,1.9878,1.9881,1.9894,1.9898,1.9841,1.9841,1.9841,0,1.9595,1.963,1.9636,1.9661,1.9673,1.9671,1.9697,1.9709,1.9733,1.9741,1.9733,1.9776,1.9787,1.9821,1.9831,1.984,1.9846,1.9836,1.9877,1.9881,1.9884,1.9896,1.9901,1.9842,1.9842,1.9842,1.9842,0,1.9646,1.9671,1.969,1.9714,1.9729,1.9755,1.9762,1.9776,1.9777,1.9783,1.9812,1.9825,1.9846,1.9855,1.9855,1.9888,1.9883,1.9876,1.9861,1.989,1.9901,1.9906,1.9844,1.9844,1.9843,1.9843,0,0,1.9692,1.9718,1.9725,1.9735,1.9756,1.9774,1.9798,1.982,1.9831,1.9848,1.9867,1.9896,1.9889,1.9901,1.9902,1.9917,1.9945,1.9908,1.9908,1.9913,1.998,1.9985,1.999,1.9943,1.9944,1.9944,1.9978,0,1.9729,1.9773,1.9778,1.9817,1.9838,1.9835,1.9855,1.9869,1.9876,1.9893,1.99,1.992,1.9911,1.9917,1.9932,1.9939,1.9959,1.9937,1.9958,1.9959,1.9953,1.9996,2.0001,2.0032,1.9983,1.9984,1.9984,0,1.9779,1.9798,1.9839,1.9855,1.9864,1.9883,1.9902,1.992,1.9935,1.9938,1.9951,1.995,1.9973,1.9958,1.9988,1.9973,1.9982,1.9987,1.9988,1.9989,1.9973,1.9997,2.0043,2.0047,1.9992,1.9991,1.999,0,1.9806,1.9841,1.987,1.9879,1.9899,1.9912,1.9921,1.9935,1.9947,1.9963,1.9971,1.9989,1.9999,2.0013,2.0016,2.0005,2.0046,2.0032,2.0048,2.0047,2.0055,2.0054,2.0102,2.0064,2.0064,2.0064,2.0063,0,1.9847,1.9871,1.9882,1.9899,1.9926,1.993,1.9956,1.9964,1.9977,1.9994,1.9992,2.0009,2.0013,2.0029,2.0032,2.0056,2.0061,2.0063,2.0063,2.0062,2.0062,2.0067,2.0064,2.0065,2.0064,2.0064,2.0064,0,1.9881,1.9889,1.9919,1.9936,1.9941,1.996,1.9973,1.9989,1.9995,2.0017,2.0022,2.0031,2.005,2.0055,2.0078,2.008,2.0107,2.0106,2.0102,2.0102,2.0117,2.0115,2.0169,2.0175,2.0134,2.0134,2.0135,0,1.9906,1.9924,1.9943,1.9955,1.9965,1.9984,1.9997,2.0001,2.0014,2.0032,2.0045,2.0064,2.0079,2.0109,2.0117,2.0134,2.0132,2.015,2.0135,2.0133,2.013,2.0129,2.013,2.0152,2.0153,2.0153,2.0153,0,1.9948,1.9951,1.997,1.9989,2.0004,2.0019,2.0034,2.0043,2.005,2.0063,2.0083,2.0095,2.0118,2.0137,2.0154,2.0161,2.0157,2.0158,2.0162,2.0161,2.0158,2.0158,2.0109,2.0157,2.0156,2.0156,2.0156,2.0156,1.9977,1.9993,2.0008,2.0028,2.004,2.0053,2.0068,2.0076,2.0093,2.0113,2.0115,2.0136,2.0148,2.0171,2.0179,2.0195,2.0189,2.0196,2.0197,2.0198,2.0199,2.0156,2.0198,2.0198,2.0198,2.0198,2.0198,0,2.0018,2.0028,2.0046,2.0067,2.0082,2.0079,2.0094,2.0107,2.0126,2.0138,2.0154,2.0175,2.0193,2.0202,2.0219,2.0229,2.0228,2.0233,2.0232,2.0233,2.0204,2.0198,2.0234,2.0234,2.0234,2.0234,2.0234,2.0234,2.0041,2.0067,2.0072,2.0103,2.0112,2.0133,2.0142,2.0154,2.0164,2.0188,2.0203,2.0209,2.022,2.0237,2.0252,2.0254,2.026,2.0266,2.0267,2.0239,2.0235,2.0232,2.0226,2.0267,2.0267,2.0295,2.0295,2.0295]}]]